Tracking 35275 objects as of 8-Sep-2026
HD Live streaming from Space Station
objects crossing your sky now

STARLINK-33998

Track STARLINK-33998 now!
10-day predictions
STARLINK-33998 is classified as:


NORAD ID: 63951
Int'l Code: 2025-098AB
Launch date: May 13, 2025
Source: United States (US)
Launch site: AIR FORCE WESTERN TEST RANGE (AFWTR)
Your satellite tracking list
Your tracking list is empty




NASA's NSSDC Master Catalog

Two Line Element Set (TLE):
1 63951U 25098AB  26251.58335648  .00056129  00000-0  19446-2 0  9995
2 63951  70.0006 172.4199 0003204 266.3684 345.1492 15.29543795  5728
Source of the keplerian elements: AFSPC